Weather in Pazardzhik

Bulgaria     42°11′16″N   24°19′48″E
temp.,
°C
wind,
m/s
gust,
m/s
humid.,
%
clouds,
%
prec.,
mm/h
press.,
hPa
HPBL,
m
7 march, sun
sun723:00+3wnw22543 0.0 103137
02:00+1nne127023 0.0 103146
05:00+1e118880 0.3 1031170
08:00+1ne018190 0.8 1030212
11:00+4e226293 0.1 1029895
14:00+7ene324952 0.1 10251093
17:00+7ese32470 0.0 1023933
20:00+3ese12640 0.0 102324
8 march, mon
mon823:00+2nne11720 0.0 102222
02:00+1nnw11750 0.0 102122
05:000nw11760 0.0 101922
08:00+2nnw11660 0.0 101955
11:00+8e11500 0.0 1017453
14:00+12se21391 0.0 1016601
17:00+12sse233911 0.0 1015678
20:00+7wnw23497 0.0 101736
9 march, tue
tue923:00+5wnw225722 0.0 101833
02:00+4wnw225632 0.0 101827
05:00+4wnw225275 0.0 101824
08:00+5nnw115387 0.0 101942
11:00+9ene224089 0.0 1019598
14:00+11e333593 0.0 10191224
17:00+10e4443100 0.0 10181253
20:00+7se2573100 0.0 1019226
10 march, wed
wed1023:00+7ne127099 0.0 1018106
02:00+5e3578100 0.2 1018581
05:00+4e2488100 0.4 1017340
08:00+4ne1295100 3.1 1018239
11:00+4wsw1196100 4.4 1020246
14:00+5sw1283100 5.4 1019397
17:00+9nw365453 0.0 10181464
20:00+5wnw336965 0.1 102047
11 march, thu
thu1123:00+4wnw237590 0.0 102340
02:00+2wnw237757 0.0 102537
05:00+1wnw23800 0.0 102640
08:00+2wnw12710 0.0 1027102
11:00+8ene02480 0.0 10271078
14:00+10e23360 0.0 10251459
17:00+10ese32410 0.0 1024661
20:00+6se11580 0.0 102522